Olive Branch, MS

5:51 PM CDT on September 26, 2017 (GMT -0500)
Olive Branch

Weather History for KOLV - July, 2013

Change the Weather History Date:

Friday, July 5, 2013

  Actual Average (KMEM) Record (KMEM)
Temperature  
Mean Temperature 74 °F -  
Max Temperature 84 °F 90 °F 104 °F (1954)
Min Temperature 64 °F 71 °F 60 °F (1968)
Cooling Degree Days 9    
Growing Degree Days 24 (Base 50)    
Moisture  
Dew Point 68 °F    
Average Humidity 95    
Maximum Humidity 100    
Minimum Humidity 62    
Precipitation  
Precipitation 0.00 in - - ()
Sea Level Pressure  
Sea Level Pressure 30.03 in    
Wind  
Wind Speed 3 mph (ESE)    
Max Wind Speed 16 mph    
Max Gust Speed 29 mph    
Visibility 8 miles    
Events Fog , Rain , Thunderstorm    
Averages and records for this station are not official NWS values.
T = Trace of Precipitation, MM = Missing Value Source: NWS Daily Summary

Daily Weather History Graph

Daily Weather History Graph

Search for Another Location

Airport or City:

Trip Planner

Search our weather history database for the weather conditions in past years. The results will help you decide how hot, cold, wet, or windy it might be!

Date:

Astronomy

Jul. 05, 2013 Rise Set
Actual Time 5:50 AM CDT 8:16 PM CDT
Civil Twilight 5:21 AM CDT 8:45 PM CDT
Nautical Twilight 4:45 AM CDT 9:22 PM CDT
Astronomical Twilight 4:05 AM CDT 10:01 PM CDT
Moon 3:48 AM CDT (7/5) 6:13 PM CDT (7/5)
Length of Visible Light 15h 24m
Length of Day
14h 25m
Waning Crescent, 6% of the Moon is Illuminated
Jul 5
Waning Crescent
Jul 8
New
Jul 15
First Quarter
Jul 22
Full
Jul 29
Last Quarter

Hourly Weather History & Observations

Time (CDT) Temp. Heat Index Dew Point Humidity Pressure Visibility Wind Dir Wind Speed Gust Speed Precip Events Conditions
12:15 AM 69.8 °F - 69.8 °F 100% 30.02 in 10.0 mi Calm Calm - 0.00 in   Clear
12:35 AM 69.8 °F - 69.8 °F 100% 30.02 in 10.0 mi East 4.6 mph - 0.00 in   Clear
12:55 AM 69.8 °F - 69.8 °F 100% 30.02 in 10.0 mi Calm Calm - 0.00 in   Clear
1:15 AM 69.8 °F - 69.8 °F 100% 30.02 in 9.0 mi ESE 4.6 mph - 0.00 in   Clear
1:35 AM 69.8 °F - 69.8 °F 100% 30.02 in 9.0 mi SE 6.9 mph - 0.00 in   Clear
1:55 AM 69.8 °F - 69.8 °F 100% 30.02 in 10.0 mi SE 5.8 mph - 0.00 in   Clear
2:15 AM 68.0 °F - 68.0 °F 100% 30.02 in 10.0 mi SE 5.8 mph - 0.00 in   Clear
2:35 AM 68.0 °F - 68.0 °F 100% 30.02 in 10.0 mi SE 4.6 mph - 0.00 in   Clear
2:55 AM 68.0 °F - 68.0 °F 100% 30.01 in 8.0 mi Calm Calm - 0.00 in   Clear
3:15 AM 68.0 °F - 68.0 °F 100% 30.01 in 8.0 mi Calm Calm - 0.00 in   Clear
3:55 AM 68.0 °F - 68.0 °F 100% 30.02 in 9.0 mi ENE 3.5 mph - 0.00 in   Partly Cloudy
4:15 AM 66.2 °F - - N/A% 30.01 in 9.0 mi Calm Calm - 0.00 in   Scattered Clouds
4:35 AM 66.2 °F - - N/A% 30.02 in 10.0 mi Calm Calm - 0.00 in   Partly Cloudy
4:55 AM 66.2 °F - - N/A% 30.02 in 8.0 mi Calm Calm - 0.00 in   Partly Cloudy
5:15 AM 66.2 °F - - N/A% 30.02 in 10.0 mi Calm Calm - 0.00 in   Clear
5:35 AM 66.2 °F - - N/A% 30.03 in 10.0 mi Calm Calm - 0.00 in   Clear
5:55 AM 66.2 °F - - N/A% 30.04 in 8.0 mi ESE 3.5 mph - 0.00 in   Scattered Clouds
6:15 AM 66.2 °F - - N/A% 30.04 in 4.0 mi Calm Calm - 0.00 in   Overcast
6:35 AM 66.2 °F - - N/A% 30.04 in 0.2 mi Calm Calm - 0.00 in   Overcast
6:50 AM 66.2 °F - 66.2 °F 100% 30.05 in 0.2 mi Calm Calm - N/A Fog Fog
6:55 AM 66.2 °F - - N/A% 30.04 in 0.2 mi Calm Calm - 0.00 in   Overcast
7:15 AM 66.2 °F - - N/A% 30.05 in 0.5 mi Calm Calm - 0.00 in   Overcast
8:08 AM 68.0 °F - 68.0 °F 100% 30.06 in 1.8 mi NE 4.6 mph - N/A   Overcast
8:50 AM 69.8 °F - 69.8 °F 100% 30.08 in 7.0 mi ESE 4.6 mph - N/A   Overcast
10:50 AM 75.2 °F - 73.4 °F 94% 30.08 in 10.0 mi ESE 8.1 mph - N/A   Mostly Cloudy
1:50 PM 82.4 °F 87.2 °F 71.6 °F 70% 30.05 in 10.0 mi East 5.8 mph - N/A   Mostly Cloudy
3:50 PM 84.2 °F 89.6 °F 71.6 °F 66% 30.03 in 10.0 mi East 8.1 mph - N/A   Mostly Cloudy
4:50 PM 84.2 °F 88.4 °F 69.8 °F 62% 30.01 in 10.0 mi ESE 5.8 mph - N/A   Mostly Cloudy
5:50 PM 82.4 °F 87.2 °F 71.6 °F 70% 30.01 in 10.0 mi Calm Calm - N/A   Overcast
6:30 PM 73.4 °F - 66.2 °F 78% 30.03 in 7.0 mi NE 5.8 mph - N/A Rain , Thunderstorm Heavy Thunderstorms and Rain
6:45 PM 68.0 °F - 68.0 °F 100% 30.06 in 0.5 mi East 16.1 mph 28.8 mph N/A Rain , Thunderstorm Heavy Thunderstorms and Rain
7:25 PM 66.2 °F - 66.2 °F 100% 30.04 in 2.0 mi SSE 6.9 mph - N/A Rain , Thunderstorm Thunderstorms and Rain
7:50 PM 64.4 °F - 64.4 °F 100% 30.03 in 10.0 mi ESE 13.8 mph - N/A   Mostly Cloudy
9:35 PM 64.4 °F - 64.4 °F 100% 30.03 in 10.0 mi East 9.2 mph - 0.00 in   Clear
9:55 PM 64.4 °F - 64.4 °F 100% 30.05 in 9.0 mi ESE 5.8 mph - 0.00 in   Partly Cloudy
10:15 PM 64.4 °F - 64.4 °F 100% 30.06 in 9.0 mi East 4.6 mph - 0.00 in   Partly Cloudy
10:35 PM 64.4 °F - 64.4 °F 100% 30.06 in 10.0 mi ESE 5.8 mph - 0.00 in   Partly Cloudy
10:55 PM 64.4 °F - 64.4 °F 100% 30.05 in 10.0 mi ESE 9.2 mph - 0.00 in   Partly Cloudy
11:15 PM 64.4 °F - 64.4 °F 100% 30.04 in 10.0 mi ESE 6.9 mph - 0.00 in   Clear
11:35 PM 64.4 °F - 64.4 °F 100% 30.03 in 10.0 mi ESE 6.9 mph - 0.00 in   Clear
11:55 PM 64.4 °F - 64.4 °F 100% 30.05 in 10.0 mi SSE 3.5 mph - 0.00 in   Partly Cloudy